Content
SEND FEEDBACK

Daily
Averages
Monthly
Summary
United States of America

TRUCKEE, CALIFORNIA


Home > North America > United States > California
Elevation: 5966 feet     Latitude: 39 20N     Longitude: 120 11W

WEATHER
 
SELECT A DAY
Number of Records: 286,455;   Date Range: 1/1/95 - 9/29/14
 
SHARE

PRINT THIS DATA

[ ← Previous Day ]
WEATHER ALMANAC - AUGUST 18, 2014
[ Next Day → ]
[ °C ]   °F
Weather ElementAverageHighLow
Temperature53.9 °F82.4 °F (1:50 pm)32 °F (6:35 am)
Dewpoint30.8 °F33.8 °F (5:35 am)24.8 °F (11:50 am)
Humidity50.2 %93 % (1:55 am)12 % (2:50 pm)
Barometer30.12 in30.19 in (2:45 pm)30.04 in (5:45 pm)
Wind Speed3.5 mph16.1 mph (12:50 pm)
Wind Gust20.7 mph (11:45 am)
Weather ElementAverage
Visibility10 mi
Wind DirectionESE (99.4 °)

Weather ElementTotal
Precipitation---
Heating Degree Days7.8 (Base 65)
Growing Degree Days7.2 (Base 50)
Averaged from 50 records on August 18, 2014
WEATHER CONDITIONS BREAKOUT
WIND DIRECTION BREAKOUT
WEATHER BY HOUR - AUGUST 18, 2014
[ °C ]   °F
Local TimeTemperatureDewpointHumidityBarometerVisibilityWind DirectionWind SpeedGust SpeedPrecipitationEventsConditions
12:15 AM44.6 °F32.0 °F61 %30.19 in10.0 miCalmClear
12:35 AM46.4 °F33.8 °F62 %30.19 in10.0 miCalmClear
12:55 AM44.6 °F32.0 °F61 %30.19 in10.0 miCalmClear
1:15 AM46.4 °F32.0 °F57 %30.19 in10.0 miCalmClear
1:35 AM41.0 °F32.0 °F70 %30.19 in10.0 miCalmClear
1:55 AM37.4 °F30.2 °F75 %30.19 in10.0 miSSE (160°)4.6 mphClear
2:15 AM42.8 °F32.0 °F66 %30.19 in10.0 miCalmClear
2:35 AM42.8 °F32.0 °F66 %30.18 in10.0 miCalmClear
2:55 AM39.2 °F32.0 °F75 %30.18 in10.0 miCalmClear
3:15 AM37.4 °F30.2 °F75 %30.18 in10.0 miESE (120°)3.5 mphClear
3:35 AM39.2 °F32.0 °F75 %30.17 in10.0 miCalmClear
3:55 AM37.4 °F30.2 °F75 %30.18 in10.0 miCalmClear
4:15 AM37.4 °F32.0 °F81 %30.17 in10.0 miCalmClear
4:35 AM37.4 °F32.0 °F81 %30.17 in10.0 miCalmClear
4:55 AM35.6 °F32.0 °F87 %30.17 in10.0 miCalmClear
5:15 AM33.8 °F32.0 °F93 %30.16 in10.0 miCalmClear
5:35 AM33.8 °F32.0 °F93 %30.16 in10.0 miCalmClear
5:55 AM33.8 °F32.0 °F93 %30.16 in10.0 miCalmClear
6:15 AM35.6 °F32.0 °F87 %30.16 in10.0 miCalmClear
6:35 AM32.0 °F30.2 °F93 %30.17 in10.0 miCalmClear
6:55 AM32.0 °F28.4 °F87 %30.16 in10.0 miCalmClear
7:45 AM42.8 °F30.2 °F61 %30.17 in10.0 miCalmClear
8:45 AM51.8 °F32.0 °F47 %30.16 in10.0 miCalmClear
9:45 AM60.8 °F30.2 °F31 %30.14 in10.0 miCalmClear
10:50 AM71.6 °F28.4 °F20 %30.13 in10.0 miCalmClear
11:45 AM78.8 °F24.8 °F14 %30.11 in10.0 miWSW (240°)10.4 mph16.1 mphClear
12:45 PM80.6 °F24.8 °F13 %30.10 in10.0 miSW (230°)9.2 mph20.7 mphClear
1:45 PM80.6 °F24.8 °F13 %30.08 in10.0 miSW (230°)10.4 mph16.1 mphClear
2:50 PM82.4 °F24.8 °F12 %30.07 in10.0 miWest (260°)11.5 mph20.7 mphPartly Cloudy
3:45 PM82.4 °F26.6 °F13 %30.05 in10.0 miWest (280°)16.1 mphPartly Cloudy
4:45 PM78.8 °F26.6 °F15 %30.05 in10.0 miWest (270°)15.0 mph19.6 mphClear
5:45 PM78.8 °F30.2 °F17 %30.04 in10.0 miWest (270°)9.2 mphClear
6:15 PM75.2 °F32.0 °F21 %30.04 in10.0 miWSW (250°)12.7 mph17.3 mphClear
6:35 PM73.4 °F32.0 °F22 %30.04 in10.0 miWest (260°)10.4 mph20.7 mphClear
6:55 PM71.6 °F32.0 °F23 %30.05 in10.0 miWest (280°)10.4 mphClear
7:15 PM69.8 °F32.0 °F25 %30.05 in10.0 miWest (270°)8.1 mphClear
7:35 PM69.8 °F32.0 °F25 %30.06 in10.0 miWest (260°)8.1 mphClear
7:55 PM68.0 °F32.0 °F26 %30.06 in10.0 miWSW (250°)6.9 mphClear
8:15 PM66.2 °F32.0 °F28 %30.07 in10.0 miNW (320°)5.8 mphClear
8:35 PM64.4 °F32.0 °F30 %30.07 in10.0 miNorth (360°)4.6 mphClear
8:55 PM64.4 °F32.0 °F30 %30.08 in10.0 miCalmClear
9:15 PM55.4 °F32.0 °F41 %30.08 in10.0 miSouth (180°)3.5 mphClear
9:35 PM55.4 °F32.0 °F41 %30.08 in10.0 miSouth (170°)5.8 mphClear
9:55 PM55.4 °F32.0 °F41 %30.08 in10.0 miCalmClear
10:15 PM55.4 °F32.0 °F41 %30.08 in10.0 miCalmClear
10:35 PM55.4 °F32.0 °F41 %30.08 in10.0 miCalmClear
10:55 PM51.8 °F30.2 °F44 %30.08 in10.0 miSouth (170°)3.5 mphClear
11:15 PM46.4 °F32.0 °F57 %30.08 in10.0 miSE (140°)3.5 mphClear
11:35 PM46.4 °F32.0 °F57 %30.08 in10.0 miCalmClear
11:55 PM50.0 °F32.0 °F50 %30.08 in10.0 miCalmClear
Hourly data recorded from KTRK, located miles away from Truckee, California







STORIES FROM OUR PARTNERS